contact:dominique.lefevre@mio.osupytheas.fr, maurice.libes@osupytheas.fr, didier.mallarino@osupytheas.fr
Project:EMSO http://www.emso-fr.org/EMSO-France
Depth: 2436.0 m
Title:EMSO Ligure Ouest : Data MII capteur CSTAR
DateTime,Latitude,Longitude,Instrument_Serial,Reference_Counts,Signal_Counts,Corrected_Signal_raw_counts,Calculated_Beam_c_inverse_meters,Internal_thermistor_counts
DateTime,Latitude,Longitude,Instrument_Serial,Reference_Counts,Signal_Counts,Corrected_Signal_raw_counts,Calculated_Beam_c_inverse_meters,Internal_thermistor_counts
2020-04-20T00:01:27,42.805,6.029,CST-1368DR,6441,9030,15188,0.111,551
2020-04-20T00:04:29,42.805,6.029,CST-1368DR,6440,9029,15189,0.111,551
2020-04-20T00:07:30,42.805,6.029,CST-1368DR,6441,9028,15186,0.112,551
2020-04-20T00:10:32,42.805,6.029,CST-1368DR,6441,9029,15187,0.111,551
2020-04-20T00:13:34,42.805,6.029,CST-1368DR,6441,9027,15183,0.112,551
2020-04-20T00:16:36,42.805,6.029,CST-1368DR,6441,9029,15186,0.112,551
2020-04-20T00:19:37,42.805,6.029,CST-1368DR,6441,9028,15185,0.112,551
2020-04-20T00:22:39,42.805,6.029,CST-1368DR,6441,9029,15187,0.111,551
2020-04-20T00:25:41,42.805,6.029,CST-1368DR,6441,9028,15186,0.112,551
2020-04-20T00:28:43,42.805,6.029,CST-1368DR,6441,9029,15187,0.111,551
2020-04-20T00:31:44,42.805,6.029,CST-1368DR,6440,9030,15190,0.111,551
2020-04-20T00:34:46,42.805,6.029,CST-1368DR,6440,9027,15186,0.112,551
2020-04-20T00:37:48,42.805,6.029,CST-1368DR,6440,9027,15186,0.112,551
2020-04-20T00:40:49,42.805,6.029,CST-1368DR,6440,9029,15190,0.111,551
2020-04-20T00:43:51,42.805,6.029,CST-1368DR,6440,9029,15190,0.111,551
2020-04-20T00:46:53,42.805,6.029,CST-1368DR,6440,9030,15191,0.110,551
2020-04-20T00:49:55,42.805,6.029,CST-1368DR,6440,9029,15189,0.111,551
2020-04-20T00:52:56,42.805,6.029,CST-1368DR,6441,9030,15188,0.111,551
2020-04-20T00:55:58,42.805,6.029,CST-1368DR,6440,9029,15190,0.111,551
2020-04-20T00:59:00,42.805,6.029,CST-1368DR,6440,9029,15190,0.111,551
2020-04-20T01:02:02,42.805,6.029,CST-1368DR,6441,9029,15187,0.111,551
2020-04-20T01:05:03,42.805,6.029,CST-1368DR,6441,9030,15189,0.111,551
2020-04-20T01:08:05,42.805,6.029,CST-1368DR,6440,9029,15189,0.111,551
2020-04-20T01:11:07,42.805,6.029,CST-1368DR,6440,9030,15191,0.110,551
2020-04-20T01:14:08,42.805,6.029,CST-1368DR,6440,9030,15190,0.111,551
2020-04-20T01:17:10,42.805,6.029,CST-1368DR,6440,9028,15188,0.111,551
2020-04-20T01:20:12,42.805,6.029,CST-1368DR,6440,9029,15189,0.111,551
2020-04-20T01:23:13,42.805,6.029,CST-1368DR,6440,9030,15190,0.111,551
2020-04-20T01:26:15,42.805,6.029,CST-1368DR,6440,9028,15188,0.111,551
2020-04-20T01:29:17,42.805,6.029,CST-1368DR,6440,9028,15188,0.111,551
2020-04-20T01:32:19,42.805,6.029,CST-1368DR,6440,9027,15186,0.112,550
2020-04-20T01:35:20,42.805,6.029,CST-1368DR,6440,9029,15189,0.111,551
2020-04-20T01:38:22,42.805,6.029,CST-1368DR,6440,9029,15189,0.111,550
2020-04-20T01:41:24,42.805,6.029,CST-1368DR,6440,9028,15188,0.111,551
2020-04-20T01:44:25,42.805,6.029,CST-1368DR,6440,9027,15186,0.112,551
2020-04-20T01:47:27,42.805,6.029,CST-1368DR,6440,9028,15187,0.111,551
2020-04-20T01:50:29,42.805,6.029,CST-1368DR,6440,9028,15188,0.111,551
2020-04-20T01:53:31,42.805,6.029,CST-1368DR,6440,9029,15189,0.111,551
2020-04-20T01:56:32,42.805,6.029,CST-1368DR,6440,9027,15186,0.112,551
2020-04-20T01:59:34,42.805,6.029,CST-1368DR,6440,9028,15188,0.111,551
2020-04-20T02:02:36,42.805,6.029,CST-1368DR,6440,9029,15189,0.111,551
2020-04-20T02:05:37,42.805,6.029,CST-1368DR,6440,9028,15188,0.111,551
2020-04-20T02:08:39,42.805,6.029,CST-1368DR,6440,9029,15189,0.111,551
2020-04-20T02:11:41,42.805,6.029,CST-1368DR,6440,9030,15191,0.110,551
2020-04-20T02:14:43,42.805,6.029,CST-1368DR,6440,9029,15189,0.111,551
2020-04-20T02:17:45,42.805,6.029,CST-1368DR,6440,9027,15186,0.112,551
2020-04-20T02:20:46,42.805,6.029,CST-1368DR,6440,9029,15189,0.111,551
2020-04-20T02:23:48,42.805,6.029,CST-1368DR,6440,9029,15189,0.111,551
2020-04-20T02:26:50,42.805,6.029,CST-1368DR,6440,9029,15189,0.111,551
2020-04-20T02:29:51,42.805,6.029,CST-1368DR,6440,9027,15185,0.112,551
2020-04-20T02:32:53,42.805,6.029,CST-1368DR,6440,9028,15188,0.111,551
2020-04-20T02:35:55,42.805,6.029,CST-1368DR,6440,9029,15189,0.111,551
2020-04-20T02:38:56,42.805,6.029,CST-1368DR,6440,9028,15188,0.111,551
2020-04-20T02:41:58,42.805,6.029,CST-1368DR,6440,9028,15188,0.111,551
2020-04-20T02:45:00,42.805,6.029,CST-1368DR,6440,9028,15188,0.111,551
2020-04-20T02:48:01,42.805,6.029,CST-1368DR,6440,9029,15189,0.111,551
2020-04-20T02:51:03,42.805,6.029,CST-1368DR,6440,9027,15186,0.112,551
2020-04-20T02:54:05,42.805,6.029,CST-1368DR,6440,9028,15188,0.111,551
2020-04-20T02:57:07,42.805,6.029,CST-1368DR,6440,9027,15186,0.112,551
2020-04-20T03:00:08,42.805,6.029,CST-1368DR,6440,9028,15187,0.111,551
2020-04-20T03:03:10,42.805,6.029,CST-1368DR,6440,9028,15187,0.111,550
2020-04-20T03:06:12,42.805,6.029,CST-1368DR,6440,9027,15186,0.112,551
2020-04-20T03:09:13,42.805,6.029,CST-1368DR,6440,9029,15189,0.111,551
2020-04-20T03:12:15,42.805,6.029,CST-1368DR,6440,9025,15182,0.113,551
2020-04-20T03:15:17,42.805,6.029,CST-1368DR,6440,9027,15186,0.112,551
2020-04-20T03:18:18,42.805,6.029,CST-1368DR,6440,9025,15183,0.112,551
2020-04-20T03:21:20,42.805,6.029,CST-1368DR,6440,9029,15189,0.111,551
2020-04-20T03:24:22,42.805,6.029,CST-1368DR,6440,9028,15188,0.111,551
2020-04-20T03:27:24,42.805,6.029,CST-1368DR,6440,9028,15188,0.111,551
2020-04-20T03:30:25,42.805,6.029,CST-1368DR,6440,9026,15184,0.112,551
2020-04-20T03:33:27,42.805,6.029,CST-1368DR,6440,9027,15186,0.112,551
2020-04-20T03:36:29,42.805,6.029,CST-1368DR,6440,9028,15188,0.111,551
2020-04-20T03:39:31,42.805,6.029,CST-1368DR,6440,9028,15187,0.111,551
2020-04-20T03:42:32,42.805,6.029,CST-1368DR,6440,9027,15185,0.112,550
2020-04-20T03:45:34,42.805,6.029,CST-1368DR,6440,9028,15188,0.111,551
2020-04-20T03:48:36,42.805,6.029,CST-1368DR,6440,9027,15185,0.112,551
2020-04-20T03:51:37,42.805,6.029,CST-1368DR,6440,9027,15186,0.112,551
2020-04-20T03:54:39,42.805,6.029,CST-1368DR,6440,9027,15186,0.112,551
2020-04-20T03:57:41,42.805,6.029,CST-1368DR,6440,9027,15186,0.112,550
2020-04-20T04:00:43,42.805,6.029,CST-1368DR,6440,9028,15187,0.111,551
2020-04-20T04:03:44,42.805,6.029,CST-1368DR,6440,9026,15185,0.112,551
2020-04-20T04:06:46,42.805,6.029,CST-1368DR,6440,9027,15186,0.112,551
2020-04-20T04:09:48,42.805,6.029,CST-1368DR,6440,9027,15186,0.112,551
2020-04-20T04:12:49,42.805,6.029,CST-1368DR,6440,9028,15188,0.111,551
2020-04-20T04:15:51,42.805,6.029,CST-1368DR,6440,9028,15188,0.111,551
2020-04-20T04:18:53,42.805,6.029,CST-1368DR,6440,9027,15186,0.112,550
2020-04-20T04:21:54,42.805,6.029,CST-1368DR,6440,9024,15181,0.113,551
2020-04-20T04:24:56,42.805,6.029,CST-1368DR,6440,9028,15187,0.111,551
2020-04-20T04:27:58,42.805,6.029,CST-1368DR,6440,9027,15186,0.112,551
2020-04-20T04:31:00,42.805,6.029,CST-1368DR,6440,9026,15184,0.112,551
2020-04-20T04:34:01,42.805,6.029,CST-1368DR,6440,9027,15186,0.112,551
2020-04-20T04:37:03,42.805,6.029,CST-1368DR,6440,9028,15187,0.111,551
2020-04-20T04:40:05,42.805,6.029,CST-1368DR,6440,9028,15187,0.111,550
2020-04-20T04:43:07,42.805,6.029,CST-1368DR,6440,9025,15182,0.113,551
2020-04-20T04:46:08,42.805,6.029,CST-1368DR,6440,9028,15188,0.111,551
2020-04-20T04:49:10,42.805,6.029,CST-1368DR,6440,9028,15188,0.111,551
2020-04-20T04:52:12,42.805,6.029,CST-1368DR,6440,9028,15188,0.111,551
2020-04-20T04:55:13,42.805,6.029,CST-1368DR,6440,9028,15188,0.111,551
2020-04-20T04:58:15,42.805,6.029,CST-1368DR,6440,9028,15187,0.111,551
2020-04-20T05:01:17,42.805,6.029,CST-1368DR,6440,9028,15187,0.111,551
2020-04-20T05:04:19,42.805,6.029,CST-1368DR,6440,9028,15187,0.111,551
2020-04-20T05:07:20,42.805,6.029,CST-1368DR,6440,9026,15184,0.112,551
2020-04-20T05:10:22,42.805,6.029,CST-1368DR,6440,9027,15186,0.112,551
2020-04-20T05:13:24,42.805,6.029,CST-1368DR,6440,9028,15188,0.111,551
2020-04-20T05:16:25,42.805,6.029,CST-1368DR,6440,9026,15184,0.112,551
2020-04-20T05:19:27,42.805,6.029,CST-1368DR,6440,9028,15187,0.111,551
2020-04-20T05:22:29,42.805,6.029,CST-1368DR,6440,9027,15186,0.112,551
2020-04-20T05:25:31,42.805,6.029,CST-1368DR,6440,9028,15188,0.111,551
2020-04-20T05:28:32,42.805,6.029,CST-1368DR,6440,9027,15186,0.112,551
2020-04-20T05:31:34,42.805,6.029,CST-1368DR,6440,9026,15184,0.112,551
2020-04-20T05:34:36,42.805,6.029,CST-1368DR,6440,9027,15186,0.112,551
2020-04-20T05:37:37,42.805,6.029,CST-1368DR,6440,9028,15187,0.111,551
2020-04-20T05:40:39,42.805,6.029,CST-1368DR,6440,9028,15187,0.111,551
2020-04-20T05:43:41,42.805,6.029,CST-1368DR,6440,9026,15184,0.112,551
2020-04-20T05:46:42,42.805,6.029,CST-1368DR,6440,9027,15186,0.112,551
2020-04-20T05:49:44,42.805,6.029,CST-1368DR,6440,9023,15179,0.114,551
2020-04-20T05:52:46,42.805,6.029,CST-1368DR,6440,9027,15186,0.112,551
2020-04-20T05:55:47,42.805,6.029,CST-1368DR,6439,9026,15186,0.112,551
2020-04-20T05:58:49,42.805,6.029,CST-1368DR,6440,9027,15186,0.112,551
2020-04-20T06:01:51,42.805,6.029,CST-1368DR,6440,9025,15183,0.112,551
2020-04-20T06:04:53,42.805,6.029,CST-1368DR,6439,9026,15187,0.111,551
2020-04-20T06:07:54,42.805,6.029,CST-1368DR,6440,9027,15186,0.112,551
2020-04-20T06:10:56,42.805,6.029,CST-1368DR,6440,9027,15185,0.112,551
2020-04-20T06:13:58,42.805,6.029,CST-1368DR,6439,9027,15188,0.111,551
2020-04-20T06:17:00,42.805,6.029,CST-1368DR,6440,9026,15185,0.112,551
2020-04-20T06:20:01,42.805,6.029,CST-1368DR,6439,9026,15186,0.112,551
2020-04-20T06:23:03,42.805,6.029,CST-1368DR,6439,9027,15187,0.111,551
2020-04-20T06:26:05,42.805,6.029,CST-1368DR,6440,9027,15185,0.112,551
2020-04-20T06:29:07,42.805,6.029,CST-1368DR,6440,9027,15186,0.112,551
2020-04-20T06:32:08,42.805,6.029,CST-1368DR,6439,9024,15184,0.112,551
2020-04-20T06:35:10,42.805,6.029,CST-1368DR,6439,9026,15187,0.111,551
2020-04-20T06:38:12,42.805,6.029,CST-1368DR,6439,9028,15190,0.111,551
2020-04-20T06:41:13,42.805,6.029,CST-1368DR,6439,9028,15190,0.111,551
2020-04-20T06:44:15,42.805,6.029,CST-1368DR,6439,9027,15188,0.111,551
2020-04-20T06:47:17,42.805,6.029,CST-1368DR,6439,9027,15187,0.111,551
2020-04-20T06:50:18,42.805,6.029,CST-1368DR,6439,9027,15188,0.111,551
2020-04-20T06:53:20,42.805,6.029,CST-1368DR,6439,9027,15187,0.111,551
2020-04-20T06:56:22,42.805,6.029,CST-1368DR,6439,9027,15189,0.111,551
2020-04-20T06:59:23,42.805,6.029,CST-1368DR,6439,9028,15190,0.111,551
2020-04-20T07:02:25,42.805,6.029,CST-1368DR,6439,9027,15189,0.111,551
2020-04-20T07:05:27,42.805,6.029,CST-1368DR,6439,9027,15188,0.111,550
2020-04-20T07:08:29,42.805,6.029,CST-1368DR,6439,9028,15190,0.111,551
2020-04-20T07:11:30,42.805,6.029,CST-1368DR,6439,9027,15187,0.111,551
2020-04-20T07:14:32,42.805,6.029,CST-1368DR,6439,9026,15187,0.111,551
2020-04-20T07:17:34,42.805,6.029,CST-1368DR,6439,9026,15187,0.111,551
2020-04-20T07:20:36,42.805,6.029,CST-1368DR,6439,9027,15187,0.111,551
2020-04-20T07:23:37,42.805,6.029,CST-1368DR,6439,9026,15187,0.111,551
2020-04-20T07:26:39,42.805,6.029,CST-1368DR,6439,9027,15188,0.111,551
2020-04-20T07:29:41,42.805,6.029,CST-1368DR,6439,9026,15186,0.112,551
2020-04-20T07:32:42,42.805,6.029,CST-1368DR,6439,9028,15190,0.111,551
2020-04-20T07:35:44,42.805,6.029,CST-1368DR,6439,9026,15187,0.111,551
2020-04-20T07:38:46,42.805,6.029,CST-1368DR,6439,9027,15189,0.111,551
2020-04-20T07:41:47,42.805,6.029,CST-1368DR,6439,9028,15190,0.111,551
2020-04-20T07:44:49,42.805,6.029,CST-1368DR,6439,9026,15187,0.111,550
2020-04-20T07:47:51,42.805,6.029,CST-1368DR,6439,9027,15189,0.111,551
2020-04-20T07:50:53,42.805,6.029,CST-1368DR,6439,9027,15189,0.111,551
2020-04-20T07:53:54,42.805,6.029,CST-1368DR,6439,9027,15188,0.111,551
2020-04-20T07:56:56,42.805,6.029,CST-1368DR,6439,9027,15187,0.111,551
2020-04-20T07:59:58,42.805,6.029,CST-1368DR,6439,9027,15188,0.111,551
2020-04-20T08:02:59,42.805,6.029,CST-1368DR,6439,9027,15187,0.111,551
2020-04-20T08:06:01,42.805,6.029,CST-1368DR,6439,9026,15186,0.112,551
2020-04-20T08:09:03,42.805,6.029,CST-1368DR,6439,9026,15187,0.111,551
2020-04-20T08:12:04,42.805,6.029,CST-1368DR,6439,9026,15186,0.112,551
2020-04-20T08:15:06,42.805,6.029,CST-1368DR,6439,9026,15187,0.111,551
2020-04-20T08:18:08,42.805,6.029,CST-1368DR,6439,9026,15187,0.111,551
2020-04-20T08:21:10,42.805,6.029,CST-1368DR,6439,9025,15185,0.112,551
2020-04-20T08:24:11,42.805,6.029,CST-1368DR,6439,9027,15187,0.111,551
2020-04-20T08:27:13,42.805,6.029,CST-1368DR,6439,9026,15187,0.111,551
2020-04-20T08:30:15,42.805,6.029,CST-1368DR,6439,9025,15184,0.112,551
2020-04-20T08:33:16,42.805,6.029,CST-1368DR,6439,9026,15186,0.112,551
2020-04-20T08:36:18,42.805,6.029,CST-1368DR,6439,9026,15186,0.112,551
2020-04-20T08:39:20,42.805,6.029,CST-1368DR,6439,9027,15187,0.111,551
2020-04-20T08:42:22,42.805,6.029,CST-1368DR,6439,9026,15187,0.111,551
2020-04-20T08:45:23,42.805,6.029,CST-1368DR,6439,9026,15186,0.112,551
2020-04-20T08:48:25,42.805,6.029,CST-1368DR,6439,9027,15188,0.111,551
2020-04-20T08:51:27,42.805,6.029,CST-1368DR,6439,9026,15187,0.111,550
2020-04-20T08:54:29,42.805,6.029,CST-1368DR,6439,9027,15188,0.111,551
2020-04-20T08:57:30,42.805,6.029,CST-1368DR,6439,9027,15187,0.111,551
2020-04-20T09:00:32,42.805,6.029,CST-1368DR,6439,9026,15187,0.111,551
2020-04-20T09:03:34,42.805,6.029,CST-1368DR,6439,9024,15184,0.112,551
2020-04-20T09:06:35,42.805,6.029,CST-1368DR,6439,9026,15186,0.112,551
2020-04-20T09:09:37,42.805,6.029,CST-1368DR,6439,9026,15186,0.112,551
2020-04-20T09:12:39,42.805,6.029,CST-1368DR,6439,9027,15187,0.111,551
2020-04-20T09:15:40,42.805,6.029,CST-1368DR,6439,9026,15187,0.111,551
2020-04-20T09:18:42,42.805,6.029,CST-1368DR,6439,9026,15187,0.111,551
2020-04-20T09:21:44,42.805,6.029,CST-1368DR,6439,9026,15187,0.111,551
2020-04-20T09:24:45,42.805,6.029,CST-1368DR,6439,9026,15186,0.112,551
2020-04-20T09:27:47,42.805,6.029,CST-1368DR,6439,9025,15185,0.112,551
2020-04-20T09:30:49,42.805,6.029,CST-1368DR,6439,9023,15181,0.113,551
2020-04-20T09:33:51,42.805,6.029,CST-1368DR,6439,9023,15182,0.113,551
2020-04-20T09:36:52,42.805,6.029,CST-1368DR,6439,9026,15187,0.111,551
2020-04-20T09:39:54,42.805,6.029,CST-1368DR,6439,9025,15185,0.112,551
2020-04-20T09:42:56,42.805,6.029,CST-1368DR,6439,9026,15187,0.111,551
2020-04-20T09:45:57,42.805,6.029,CST-1368DR,6439,9025,15185,0.112,551
2020-04-20T09:48:59,42.805,6.029,CST-1368DR,6439,9026,15187,0.111,551
2020-04-20T09:52:01,42.805,6.029,CST-1368DR,6439,9024,15182,0.113,551
2020-04-20T09:55:02,42.805,6.029,CST-1368DR,6439,9023,15181,0.113,551
2020-04-20T09:58:04,42.805,6.029,CST-1368DR,6439,9026,15187,0.111,551
2020-04-20T10:01:06,42.805,6.029,CST-1368DR,6439,9025,15185,0.112,551
2020-04-20T10:04:07,42.805,6.029,CST-1368DR,6439,9024,15182,0.113,551
2020-04-20T10:07:09,42.805,6.029,CST-1368DR,6439,9025,15185,0.112,551
2020-04-20T10:10:11,42.805,6.029,CST-1368DR,6439,9024,15184,0.112,551
2020-04-20T10:13:13,42.805,6.029,CST-1368DR,6439,9026,15186,0.112,551
2020-04-20T10:16:14,42.805,6.029,CST-1368DR,6439,9025,15185,0.112,551
2020-04-20T10:19:16,42.805,6.029,CST-1368DR,6439,9024,15183,0.112,551
2020-04-20T10:22:18,42.805,6.029,CST-1368DR,6439,9026,15186,0.112,551
2020-04-20T10:25:19,42.805,6.029,CST-1368DR,6439,9024,15182,0.113,551
2020-04-20T10:28:21,42.805,6.029,CST-1368DR,6439,9024,15184,0.112,551
2020-04-20T10:31:23,42.805,6.029,CST-1368DR,6439,9023,15182,0.113,551
2020-04-20T10:34:24,42.805,6.029,CST-1368DR,6439,9025,15185,0.112,551
2020-04-20T10:37:26,42.805,6.029,CST-1368DR,6439,9024,15184,0.112,551
2020-04-20T10:40:28,42.805,6.029,CST-1368DR,6439,9025,15184,0.112,551
2020-04-20T10:43:30,42.805,6.029,CST-1368DR,6439,9023,15182,0.113,551
2020-04-20T10:46:31,42.805,6.029,CST-1368DR,6439,9024,15184,0.112,551
2020-04-20T10:49:33,42.805,6.029,CST-1368DR,6439,9025,15185,0.112,550
2020-04-20T10:52:35,42.805,6.029,CST-1368DR,6439,9024,15184,0.112,551
2020-04-20T10:55:37,42.805,6.029,CST-1368DR,6439,9025,15185,0.112,551
2020-04-20T10:58:38,42.805,6.029,CST-1368DR,6439,9026,15186,0.112,551
2020-04-20T11:01:40,42.805,6.029,CST-1368DR,6439,9025,15185,0.112,551
2020-04-20T11:04:42,42.805,6.029,CST-1368DR,6439,9025,15185,0.112,551
2020-04-20T11:07:43,42.805,6.029,CST-1368DR,6439,9025,15185,0.112,551
2020-04-20T11:15:07,42.805,6.029,CST-1368DR,6439,9025,15185,0.112,551
2020-04-20T11:18:09,42.805,6.029,CST-1368DR,6439,9025,15185,0.112,551
2020-04-20T11:21:10,42.805,6.029,CST-1368DR,6438,9025,15187,0.111,551
2020-04-20T11:24:12,42.805,6.029,CST-1368DR,6438,9025,15187,0.111,551
2020-04-20T11:27:14,42.805,6.029,CST-1368DR,6438,9022,15182,0.113,551
2020-04-20T11:30:15,42.805,6.029,CST-1368DR,6438,9024,15185,0.112,551
2020-04-20T11:33:17,42.805,6.029,CST-1368DR,6438,9023,15184,0.112,551
2020-04-20T11:36:19,42.805,6.029,CST-1368DR,6438,9023,15183,0.112,551
2020-04-20T11:39:20,42.805,6.029,CST-1368DR,6438,9024,15185,0.112,551
2020-04-20T11:42:22,42.805,6.029,CST-1368DR,6438,9024,15186,0.112,551
2020-04-20T11:45:24,42.805,6.029,CST-1368DR,6438,9024,15185,0.112,551
2020-04-20T11:48:25,42.805,6.029,CST-1368DR,6438,9025,15186,0.112,551
2020-04-20T11:51:27,42.805,6.029,CST-1368DR,6439,9024,15184,0.112,551
2020-04-20T11:54:29,42.805,6.029,CST-1368DR,6438,9025,15188,0.111,551
2020-04-20T11:57:30,42.805,6.029,CST-1368DR,6438,9025,15186,0.112,551
2020-04-20T12:00:32,42.805,6.029,CST-1368DR,6439,9025,15184,0.112,550
2020-04-20T12:03:34,42.805,6.029,CST-1368DR,6438,9025,15187,0.111,551
2020-04-20T12:06:36,42.805,6.029,CST-1368DR,6438,9025,15188,0.111,551
2020-04-20T12:09:37,42.805,6.029,CST-1368DR,6439,9025,15185,0.112,551
2020-04-20T12:12:39,42.805,6.029,CST-1368DR,6439,9024,15184,0.112,551
2020-04-20T12:15:41,42.805,6.029,CST-1368DR,6439,9025,15184,0.112,551
2020-04-20T12:18:43,42.805,6.029,CST-1368DR,6439,9025,15185,0.112,551
2020-04-20T12:21:44,42.805,6.029,CST-1368DR,6438,9025,15188,0.111,551
2020-04-20T12:24:46,42.805,6.029,CST-1368DR,6438,9025,15187,0.111,551
2020-04-20T12:27:48,42.805,6.029,CST-1368DR,6438,9025,15187,0.111,551
2020-04-20T12:30:49,42.805,6.029,CST-1368DR,6438,9025,15187,0.111,551
2020-04-20T12:33:51,42.805,6.029,CST-1368DR,6438,9025,15188,0.111,551
2020-04-20T12:36:53,42.805,6.029,CST-1368DR,6438,9025,15186,0.112,551
2020-04-20T12:39:55,42.805,6.029,CST-1368DR,6438,9025,15187,0.111,551
2020-04-20T12:42:56,42.805,6.029,CST-1368DR,6438,9025,15187,0.111,551
2020-04-20T12:45:58,42.805,6.029,CST-1368DR,6438,9025,15186,0.112,551
2020-04-20T12:49:00,42.805,6.029,CST-1368DR,6438,9026,15188,0.111,551
2020-04-20T12:52:01,42.805,6.029,CST-1368DR,6438,9025,15187,0.111,551
2020-04-20T12:55:03,42.805,6.029,CST-1368DR,6438,9024,15186,0.112,551
2020-04-20T12:58:05,42.805,6.029,CST-1368DR,6438,9024,15185,0.112,551
2020-04-20T13:01:06,42.805,6.029,CST-1368DR,6438,9023,15184,0.112,551
2020-04-20T13:04:08,42.805,6.029,CST-1368DR,6438,9025,15187,0.111,551
2020-04-20T13:07:10,42.805,6.029,CST-1368DR,6438,9024,15186,0.112,551
2020-04-20T13:10:12,42.805,6.029,CST-1368DR,6438,9025,15187,0.111,551
2020-04-20T13:13:13,42.805,6.029,CST-1368DR,6438,9025,15187,0.111,551
2020-04-20T13:16:15,42.805,6.029,CST-1368DR,6438,9024,15185,0.112,551
2020-04-20T13:19:17,42.805,6.029,CST-1368DR,6438,9025,15187,0.111,551
2020-04-20T13:22:18,42.805,6.029,CST-1368DR,6438,9024,15185,0.112,551
2020-04-20T13:25:20,42.805,6.029,CST-1368DR,6438,9023,15183,0.112,551
2020-04-20T13:28:22,42.805,6.029,CST-1368DR,6438,9025,15187,0.111,551
2020-04-20T13:31:23,42.805,6.029,CST-1368DR,6438,9025,15187,0.111,550
2020-04-20T13:34:25,42.805,6.029,CST-1368DR,6438,9024,15185,0.112,551
2020-04-20T13:37:27,42.805,6.029,CST-1368DR,6438,9024,15185,0.112,551
2020-04-20T13:40:28,42.805,6.029,CST-1368DR,6438,9022,15183,0.112,551
2020-04-20T13:43:30,42.805,6.029,CST-1368DR,6438,9022,15183,0.112,551
2020-04-20T13:46:32,42.805,6.029,CST-1368DR,6438,9024,15186,0.112,551
2020-04-20T13:49:34,42.805,6.029,CST-1368DR,6438,9024,15185,0.112,551
2020-04-20T13:52:35,42.805,6.029,CST-1368DR,6438,9024,15186,0.112,551
2020-04-20T13:55:37,42.805,6.029,CST-1368DR,6438,9023,15183,0.112,551
2020-04-20T13:58:39,42.805,6.029,CST-1368DR,6438,9024,15186,0.112,551
2020-04-20T14:01:40,42.805,6.029,CST-1368DR,6438,9024,15185,0.112,551
2020-04-20T14:04:42,42.805,6.029,CST-1368DR,6438,9023,15184,0.112,551
2020-04-20T14:07:44,42.805,6.029,CST-1368DR,6438,9024,15185,0.112,550
2020-04-20T14:10:46,42.805,6.029,CST-1368DR,6438,9024,15185,0.112,551
2020-04-20T14:13:47,42.805,6.029,CST-1368DR,6438,9023,15184,0.112,551
2020-04-20T14:16:49,42.805,6.029,CST-1368DR,6438,9023,15183,0.112,551
2020-04-20T14:19:51,42.805,6.029,CST-1368DR,6438,9021,15180,0.113,551
2020-04-20T14:22:53,42.805,6.029,CST-1368DR,6438,9023,15184,0.112,551
2020-04-20T14:25:54,42.805,6.029,CST-1368DR,6438,9023,15183,0.112,551
2020-04-20T14:28:56,42.805,6.029,CST-1368DR,6438,9021,15180,0.113,551
2020-04-20T14:31:58,42.805,6.029,CST-1368DR,6438,9021,15180,0.113,551
2020-04-20T14:34:59,42.805,6.029,CST-1368DR,6438,9024,15185,0.112,551
2020-04-20T14:38:01,42.805,6.029,CST-1368DR,6438,9024,15185,0.112,551
2020-04-20T14:41:03,42.805,6.029,CST-1368DR,6438,9023,15183,0.112,551
2020-04-20T14:44:04,42.805,6.029,CST-1368DR,6438,9020,15179,0.114,551
2020-04-20T14:47:06,42.805,6.029,CST-1368DR,6438,9024,15185,0.112,551
2020-04-20T14:50:08,42.805,6.029,CST-1368DR,6438,9023,15183,0.112,551
2020-04-20T14:53:09,42.805,6.029,CST-1368DR,6438,9023,15184,0.112,551
2020-04-20T14:56:11,42.805,6.029,CST-1368DR,6438,9022,15183,0.112,551
2020-04-20T14:59:13,42.805,6.029,CST-1368DR,6438,9024,15185,0.112,551
2020-04-20T15:02:14,42.805,6.029,CST-1368DR,6438,9025,15186,0.112,551
2020-04-20T15:05:16,42.805,6.029,CST-1368DR,6438,9025,15186,0.112,551
2020-04-20T15:08:18,42.805,6.029,CST-1368DR,6438,9024,15186,0.112,551
2020-04-20T15:11:20,42.805,6.029,CST-1368DR,6438,9025,15186,0.112,551
2020-04-20T15:14:21,42.805,6.029,CST-1368DR,6438,9025,15186,0.112,551
2020-04-20T15:17:23,42.805,6.029,CST-1368DR,6438,9025,15186,0.112,551
2020-04-20T15:20:25,42.805,6.029,CST-1368DR,6438,9023,15184,0.112,551
2020-04-20T15:23:26,42.805,6.029,CST-1368DR,6438,9024,15185,0.112,551
2020-04-20T15:26:28,42.805,6.029,CST-1368DR,6438,9023,15183,0.112,551
2020-04-20T15:29:30,42.805,6.029,CST-1368DR,6438,9023,15183,0.112,551
2020-04-20T15:32:31,42.805,6.029,CST-1368DR,6438,9024,15185,0.112,551
2020-04-20T15:35:33,42.805,6.029,CST-1368DR,6438,9024,15185,0.112,551
2020-04-20T15:38:35,42.805,6.029,CST-1368DR,6438,9024,15186,0.112,551
2020-04-20T15:41:37,42.805,6.029,CST-1368DR,6438,9023,15184,0.112,551
2020-04-20T15:44:38,42.805,6.029,CST-1368DR,6438,9023,15183,0.112,551
2020-04-20T15:47:40,42.805,6.029,CST-1368DR,6438,9022,15182,0.113,551
2020-04-20T15:50:42,42.805,6.029,CST-1368DR,6438,9024,15185,0.112,551
2020-04-20T15:53:43,42.805,6.029,CST-1368DR,6438,9023,15183,0.112,551
2020-04-20T15:56:45,42.805,6.029,CST-1368DR,6438,9023,15183,0.112,551
2020-04-20T15:59:47,42.805,6.029,CST-1368DR,6438,9022,15183,0.112,551
2020-04-20T16:02:48,42.805,6.029,CST-1368DR,6438,9022,15183,0.112,551
2020-04-20T16:05:50,42.805,6.029,CST-1368DR,6438,9022,15182,0.113,551
2020-04-20T16:08:52,42.805,6.029,CST-1368DR,6438,9023,15183,0.112,551
2020-04-20T16:11:53,42.805,6.029,CST-1368DR,6438,9022,15182,0.113,551
2020-04-20T16:14:55,42.805,6.029,CST-1368DR,6438,9023,15184,0.112,551
2020-04-20T16:17:57,42.805,6.029,CST-1368DR,6438,9024,15185,0.112,551
2020-04-20T16:20:58,42.805,6.029,CST-1368DR,6438,9025,15186,0.112,551
2020-04-20T16:24:00,42.805,6.029,CST-1368DR,6438,9023,15184,0.112,551
2020-04-20T16:27:02,42.805,6.029,CST-1368DR,6438,9023,15184,0.112,551
2020-04-20T16:30:04,42.805,6.029,CST-1368DR,6438,9023,15183,0.112,551
2020-04-20T16:33:05,42.805,6.029,CST-1368DR,6438,9023,15184,0.112,551
2020-04-20T16:36:07,42.805,6.029,CST-1368DR,6438,9024,15185,0.112,551
2020-04-20T16:39:09,42.805,6.029,CST-1368DR,6438,9024,15186,0.112,551
2020-04-20T16:42:10,42.805,6.029,CST-1368DR,6438,9023,15184,0.112,551
2020-04-20T16:45:12,42.805,6.029,CST-1368DR,6438,9023,15184,0.112,550
2020-04-20T16:48:14,42.805,6.029,CST-1368DR,6438,9022,15182,0.113,551
2020-04-20T16:51:16,42.805,6.029,CST-1368DR,6438,9023,15184,0.112,551
2020-04-20T16:54:17,42.805,6.029,CST-1368DR,6438,9022,15182,0.113,551
2020-04-20T16:57:19,42.805,6.029,CST-1368DR,6438,9022,15182,0.113,551